[[{"header":{"parameterUnit":"m.s-1","parameterCategory":1,"la1":30.2991,"la2":30.254,"lo1":-89.0895,"lo2":-89.0444,"dy":0.0017,"dx":0.0017,"nx":28,"ny":28,"refTime":"2025-09-09T03:00:00:Z","depth":0,"parameterNumber":2,"parameterNumberName":"U-component_of_WINDS"},"data":[0,0,0,0,0,0,0,0,0,0,0,0,0,0,0,0,0,0,0,0,0,0,0,0,0,0,0,0,0,0,0,0,0,0,0,0,0,0,0,0,0,0,0,0,0,0,0,0,0,0,0,0,0,0,0,0,0,0,-2.2429,-2.2429,0,-2.2425,-2.2425,-2.2425,-2.233,-2.2328,-2.2325,-2.2323,-2.232,-2.2322,-2.2324,0,0,0,0,0,0,0,0,0,0,0,0,0,-2.2355,-2.2356,-2.2429,-2.2429,-2.2429,-2.2425,-2.2425,-2.2425,-2.2331,-2.2328,-2.2325,-2.2322,-2.2319,-2.2322,-2.2325,0,0,0,0,0,0,0,0,0,0,0,0,0,-2.2372,-2.2357,-2.2429,-2.2381,-2.2377,-2.2425,-2.2425,-2.2425,-2.2331,-2.2328,-2.2324,-2.2321,-2.2319,-2.2322,-2.2325,-2.2418,0,0,-2.2335,-2.2336,0,0,0,0,0,0,0,0,-2.2372,-2.2375,-2.2388,-2.2385,-2.238,-2.2374,-2.2397,-2.2422,-2.2332,-2.2349,-2.2323,-2.2319,-2.2341,-2.2342,-2.235,-2.2418,-2.2418,-2.2335,-2.2337,-2.2339,-2.234,0,0,0,0,0,0,0,-2.237,-2.2375,-2.2427,-2.2389,-2.2383,-2.236,-2.2359,-2.2402,-2.2365,-2.2347,-2.234,-2.2341,-2.2338,-2.2347,-2.2349,-2.2418,-2.2335,-2.2338,-2.234,-2.2341,-2.2562,-2.2565,0,0,0,0,0,0,-2.2376,-2.2375,-2.2427,-2.2427,-2.2367,-2.2364,-2.2363,-2.238,-2.2365,-2.2359,-2.2344,-2.2337,-2.2343,-2.2345,-2.2348,-2.2456,-2.2339,-2.2342,-2.2343,-2.2558,-2.2563,-2.2567,0,0,0,0,0,0,-2.2375,-2.2381,-2.2427,-2.2399,-2.2403,-2.237,-2.2389,-2.2382,-2.239,-2.2362,-2.2356,-2.236,-2.234,-2.2344,-2.2401,-2.2455,-2.2343,-2.2346,-2.2553,-2.2559,-2.2565,-2.2673,0,0,0,0,0,0,-2.2373,-2.2381,-2.2417,-2.24,-2.2405,-2.2481,-2.2393,-2.2384,-2.2396,-2.2386,-2.2375,-2.237,-2.2337,-2.2397,-2.2404,-2.2457,-2.2349,-2.2548,-2.2556,-2.2563,-2.2664,-2.2682,-2.2696,0,0,0,0,0,-2.237,-2.2447,-2.2419,-2.2426,-2.2448,-2.2484,-2.2486,-2.2447,-2.2401,-2.2435,-2.2418,-2.237,-2.2448,-2.2404,-2.2411,-2.2466,-2.2545,-2.2554,-2.2562,-2.2657,-2.2678,-2.2696,0,0,0,0,0,0,-2.2471,-2.2444,-2.2412,-2.2486,-2.2488,-2.2468,-2.2511,-2.2471,-2.2486,-2.2476,-2.2428,-2.2426,-2.2491,-2.2484,-2.2435,-2.2555,-2.2488,-2.2499,-2.2557,-2.2577,-2.2593,-2.2593,-2.2351,0,0,0,0,0,-2.2502,-2.2533,-2.2508,-2.2576,-2.2578,-2.2545,-2.2559,-2.2529,-2.2528,-2.2529,-2.2515,-2.2517,-2.2541,-2.2559,-2.258,-2.2663,-2.2659,-2.2704,-2.272,-2.2733,-2.2743,-2.2787,-2.2806,-2.2596,-2.2595,-2.2595,0,0,-2.2566,-2.2555,-2.2578,-2.2596,-2.2593,-2.2627,-2.2546,-2.2585,-2.2609,-2.2535,-2.2588,-2.2578,-2.2577,-2.2648,-2.2678,-2.2644,-2.2801,-2.2745,-2.2755,-2.2758,-2.2798,-2.2818,-2.2835,-2.2601,-2.26,-2.2599,0,0,-2.27,-2.2695,-2.275,-2.275,-2.2747,-2.2724,-2.2737,-2.2723,-2.2714,-2.2766,-2.2711,-2.2739,-2.2783,-2.2784,-2.2791,-2.2924,-2.2881,-2.2933,-2.3017,-2.306,-2.3076,-2.3091,-2.3139,-2.3156,-2.2943,-2.2943,-2.2943,0,-2.278,-2.2828,-2.2784,-2.2827,-2.2836,-2.2769,-2.2825,-2.2827,-2.2832,-2.284,-2.2801,-2.2854,-2.2849,-2.2918,-2.2951,-2.2958,-2.2973,-2.2934,-2.3077,-2.3091,-2.3104,-2.3149,-2.3168,-2.2949,-2.2948,-2.2948,-2.2947,0,-2.2926,-2.296,-2.3005,-2.3011,-2.3026,-2.3075,-2.3039,-2.3058,-2.3027,-2.3008,-2.3063,-2.3054,-2.3072,-2.3086,-2.3056,-2.3152,-2.3131,-2.3086,-2.3017,-2.3131,-2.3173,-2.319,-2.2958,-2.2956,-2.2954,-2.2952,0,0,-2.3124,-2.3104,-2.3122,-2.3123,-2.3115,-2.3141,-2.3187,-2.3204,-2.3222,-2.3227,-2.3265,-2.3303,-2.3261,-2.3268,-2.3238,-2.3275,-2.3382,-2.3225,-2.3224,-2.3255,-2.3488,-2.3522,-2.3543,-2.3353,-2.3356,-2.3359,-2.3488,0,-2.3253,-2.333,-2.3292,-2.3374,-2.3405,-2.3342,-2.3382,-2.3381,-2.3365,-2.3389,-2.3371,-2.3399,-2.3341,-2.3345,-2.3379,-2.3362,-2.3428,-2.3352,-2.3388,-2.339,-2.3391,-2.3565,-2.3601,-2.3723,-2.3504,-2.3507,-2.3509,0,-2.3414,-2.3426,-2.3511,-2.3497,-2.3508,-2.3545,-2.3557,-2.3581,-2.3579,-2.3564,-2.3573,-2.3533,-2.3578,-2.351,-2.357,-2.3519,-2.3532,-2.3526,-2.3529,-2.3532,-2.3457,-2.3572,-2.3761,-2.378,-2.3534,-2.3532,-2.353,0,-2.355,-2.3587,-2.3642,-2.3646,-2.363,-2.3658,-2.3653,-2.3647,-2.366,-2.3671,-2.3679,-2.3695,-2.3705,-2.3719,-2.3685,-2.3638,-2.375,-2.3679,-2.374,-2.3741,-2.3767,-2.3766,-2.3961,-2.3775,-2.3774,-2.3774,-2.3774,0,-2.3698,-2.3753,-2.3703,-2.3737,-2.3797,-2.3752,-2.3812,-2.38,-2.3796,-2.3827,-2.3773,-2.3804,-2.3757,-2.3783,-2.3757,-2.3811,-2.3816,-2.3806,-2.3798,-2.3811,-2.3812,-2.3818,-2.3809,-2.3779,-2.3778,-2.3777,-2.3776,0,-2.386,-2.3829,-2.3885,-2.3866,-2.3863,-2.3907,-2.3891,-2.3922,-2.3901,-2.3941,-2.3948,-2.3917,-2.3944,-2.3912,-2.3937,-2.3919,-2.3993,-2.3973,-2.3994,-2.3988,-2.4051,-2.4046,-2.4258,-2.4284,-2.408,-2.4082,-2.4084,0,-2.3957,-2.3998,-2.3983,-2.3999,-2.3997,-2.4025,-2.4037,-2.3995,-2.401,-2.4011,-2.4042,-2.4065,-2.4081,-2.4129,-2.4109,-2.4128,-2.4108,-2.4181,-2.411,-2.4122,-2.4109,-2.4108,-2.4112,-2.4195,-2.4198,-2.42,-2.4201,0,-2.4133,-2.4115,-2.4135,-2.415,-2.4166,-2.4176,-2.4182,-2.4198,-2.4154,-2.4174,-2.4201,-2.4214,-2.4239,-2.4263,-2.4277,-2.4272,-2.423,-2.4224,-2.4239,-2.4252,-2.4263,-2.4259,-2.4034,-2.4219,-2.4217,-2.4216,-2.4215,-2.4214,-2.4265,-2.4298,-2.4293,-2.4317,-2.4316,-2.4323,-2.4351,-2.4334,-2.4356,-2.4372,-2.4346,-2.4381,-2.4378,-2.4391,-2.4391,-2.4418,-2.4387,-2.4408,-2.4414,-2.442,-2.443,-2.4258,-2.442,-2.4419,-2.4419,-2.4419,-2.4418,0,-2.4439,-2.4432,-2.4454,-2.4463,-2.4482,-2.444,-2.4444,-2.4463,-2.4494,-2.4494,-2.4511,-2.4542,-2.4565,-2.4547,-2.4566,-2.4591,-2.4572,-2.4597,-2.4595,-2.4595,-2.4456,-2.4442,-2.4612,-2.4612,-2.4612,-2.4612,-2.4612,-2.4612,-2.4531,-2.4584,-2.4566,-2.4619,-2.4611,-2.4644,-2.465,-2.4656,-2.4656,-2.4693,-2.4712,-2.4699,-2.4692,-2.471,-2.4729,-2.4723,-2.4733,-2.4766,-2.4753,-2.4624,-2.4605,-2.4587,-2.4573,-2.4768,-2.4768,-2.4889,-2.4891,-2.4891]},{"header":{"parameterUnit":"m.s-1","parameterCategory":1,"la1":30.2991,"la2":30.254,"lo1":-89.0895,"lo2":-89.0444,"dy":0.0017,"dx":0.0017,"nx":28,"ny":28,"refTime":"2025-09-09T03:00:00:Z","depth":0,"parameterNumber":3,"parameterNumberName":"V-component_of_WINDS"},"data":[0,0,0,0,0,0,0,0,0,0,0,0,0,0,0,0,0,0,0,0,0,0,0,0,0,0,0,0,0,0,0,0,0,0,0,0,0,0,0,0,0,0,0,0,0,0,0,0,0,0,0,0,0,0,0,0,0,0,0.5206,0.5206,0,0.5136,0.5135,0.5134,0.5116,0.5116,0.5117,0.5117,0.5041,0.5039,0.5036,0,0,0,0,0,0,0,0,0,0,0,0,0,0.5322,0.532,0.5206,0.5205,0.5205,0.5136,0.5135,0.5134,0.5116,0.5116,0.5117,0.5117,0.5042,0.5039,0.5036,0,0,0,0,0,0,0,0,0,0,0,0,0,0.5263,0.5319,0.5206,0.5187,0.5185,0.5136,0.5135,0.5134,0.5116,0.5116,0.5117,0.5117,0.5043,0.5039,0.5036,0.5,0,0,0.5025,0.5023,0,0,0,0,0,0,0,0,0.5267,0.5259,0.5191,0.5188,0.5186,0.5135,0.5148,0.5089,0.5115,0.5142,0.5117,0.5118,0.5072,0.5066,0.5051,0.4997,0.4993,0.5024,0.5022,0.502,0.5019,0,0,0,0,0,0,0,0.5271,0.5262,0.5178,0.519,0.5187,0.5181,0.5174,0.5137,0.5104,0.5139,0.5138,0.513,0.507,0.5054,0.5049,0.4992,0.5024,0.5021,0.5019,0.5017,0.4905,0.4905,0,0,0,0,0,0,0.5279,0.5266,0.5181,0.5176,0.5229,0.5178,0.517,0.5151,0.5104,0.5098,0.513,0.513,0.506,0.5053,0.5046,0.5001,0.502,0.5017,0.5015,0.4906,0.4905,0.4904,0,0,0,0,0,0,0.5281,0.5271,0.5183,0.522,0.5209,0.5176,0.5154,0.5149,0.5133,0.5097,0.509,0.512,0.5061,0.5051,0.5012,0.4999,0.5015,0.5012,0.4907,0.4906,0.4905,0.4912,0,0,0,0,0,0,0.5285,0.5272,0.5259,0.522,0.5207,0.5151,0.5154,0.5147,0.5127,0.5127,0.5086,0.508,0.506,0.5018,0.5008,0.4994,0.5009,0.4908,0.4907,0.4905,0.4913,0.4911,0.491,0,0,0,0,0,0.5289,0.5263,0.5258,0.5248,0.519,0.5151,0.5143,0.5122,0.5127,0.5112,0.5089,0.5081,0.5002,0.5014,0.5003,0.4987,0.4909,0.4907,0.4905,0.4913,0.4911,0.491,0,0,0,0,0,0,0.5299,0.5257,0.5252,0.5213,0.5186,0.5148,0.5129,0.5121,0.5091,0.5091,0.5066,0.5057,0.5019,0.4999,0.5013,0.4951,0.4955,0.4951,0.4965,0.4963,0.4961,0.4966,0.5006,0,0,0,0,0,0.5297,0.527,0.5234,0.5203,0.519,0.5162,0.5144,0.5131,0.5101,0.5089,0.5063,0.5033,0.5002,0.4981,0.495,0.491,0.4901,0.4894,0.4893,0.4892,0.4888,0.4865,0.4862,0.4898,0.4898,0.4899,0,0,0.5292,0.5266,0.525,0.5205,0.5182,0.5153,0.5152,0.5122,0.51,0.5084,0.5046,0.5026,0.4991,0.4951,0.4932,0.4933,0.4876,0.4889,0.4889,0.4886,0.4863,0.486,0.4856,0.4897,0.4897,0.4898,0,0,0.5268,0.5246,0.5218,0.5196,0.5162,0.5144,0.5137,0.5101,0.5087,0.5049,0.5036,0.5009,0.4956,0.4931,0.4912,0.4881,0.4872,0.4871,0.4863,0.4841,0.4838,0.4835,0.4823,0.482,0.4868,0.4868,0.4868,0,0.5266,0.5223,0.5204,0.5175,0.5155,0.5141,0.5112,0.5091,0.5048,0.5034,0.5037,0.497,0.4945,0.49,0.4892,0.4877,0.4868,0.4875,0.484,0.4837,0.4834,0.4823,0.4819,0.4868,0.4868,0.4868,0.4868,0,0.5222,0.5192,0.5173,0.5134,0.5113,0.5083,0.5059,0.5039,0.5029,0.501,0.4971,0.4942,0.4904,0.4893,0.4881,0.4846,0.4847,0.4846,0.4849,0.4831,0.482,0.4815,0.4868,0.4868,0.4868,0.4868,0,0,0.52,0.5153,0.5146,0.5128,0.5091,0.5067,0.5037,0.5002,0.4986,0.4957,0.4931,0.4886,0.4885,0.4863,0.4849,0.483,0.4806,0.483,0.4829,0.4826,0.4764,0.4765,0.4761,0.4801,0.48,0.4799,0.4767,0,0.5171,0.5119,0.5101,0.5057,0.5029,0.5017,0.4991,0.4964,0.4946,0.492,0.4899,0.4868,0.4869,0.4855,0.4836,0.4813,0.4793,0.4815,0.4775,0.4773,0.4783,0.4755,0.4755,0.4726,0.4763,0.4762,0.4761,0,0.513,0.5102,0.5056,0.5022,0.501,0.4987,0.4954,0.4929,0.4899,0.4887,0.4864,0.4851,0.4819,0.4826,0.478,0.4796,0.4778,0.4765,0.4763,0.4757,0.4765,0.4747,0.4717,0.4712,0.4754,0.4755,0.4755,0,0.5118,0.5069,0.5035,0.5021,0.4981,0.4965,0.4947,0.4918,0.4899,0.487,0.4857,0.4824,0.4805,0.478,0.4759,0.4766,0.4715,0.472,0.4703,0.4704,0.4692,0.4692,0.4657,0.4682,0.4683,0.4683,0.4683,0,0.5087,0.5058,0.503,0.5009,0.4976,0.4957,0.4925,0.4907,0.4881,0.4856,0.4843,0.4819,0.4793,0.4765,0.4749,0.4713,0.4705,0.4694,0.4689,0.4694,0.4696,0.4681,0.4683,0.4681,0.4682,0.4682,0.4682,0,0.5068,0.5048,0.5009,0.4976,0.4967,0.4944,0.4915,0.4894,0.4876,0.4844,0.4835,0.4807,0.4774,0.4751,0.4708,0.4697,0.4658,0.4655,0.4669,0.4666,0.465,0.4652,0.4603,0.4596,0.4628,0.4627,0.4627,0,0.5048,0.5027,0.4991,0.4974,0.4957,0.4929,0.4909,0.489,0.4869,0.4834,0.4817,0.4784,0.4756,0.4703,0.4678,0.4645,0.464,0.4626,0.4635,0.4641,0.4639,0.464,0.4637,0.4624,0.4623,0.4623,0.4623,0,0.5016,0.5007,0.498,0.495,0.4928,0.4902,0.4877,0.4863,0.4839,0.4817,0.4784,0.4762,0.472,0.4686,0.4652,0.4632,0.4623,0.4621,0.4615,0.4619,0.4628,0.4622,0.4664,0.4621,0.4622,0.4622,0.4622,0.4622,0.4995,0.4976,0.4948,0.4918,0.4898,0.4874,0.4853,0.4833,0.4806,0.477,0.476,0.4726,0.4697,0.4649,0.463,0.4602,0.4603,0.4594,0.4592,0.459,0.459,0.4634,0.4595,0.4595,0.4595,0.4595,0.4595,0,0.4962,0.4944,0.4917,0.4883,0.4859,0.4855,0.4827,0.4807,0.4778,0.4752,0.4725,0.4687,0.4655,0.4628,0.4595,0.4578,0.4573,0.457,0.457,0.4566,0.4591,0.4599,0.4574,0.4574,0.4574,0.4574,0.4574,0.4574,0.4941,0.4907,0.4896,0.4852,0.4833,0.4801,0.4785,0.4763,0.4743,0.4701,0.4675,0.4659,0.4632,0.4597,0.4567,0.456,0.4548,0.4546,0.4537,0.4561,0.4564,0.4566,0.4573,0.4543,0.4543,0.4514,0.4514,0.4513]}]]